Regional Weather Roundup
Issued by NWS

Home | Current Version | Previous Version | Text Only | Print | Product List | Glossary Off
Versions: 1 2 3 4 5 6 7 8 9 10 11 12 13 14 15 16 17 18 19 20 21 22 23 24 25 26 27 28 29 30 31 32 33 34 35 36 37 38 39 40 41 42 43 44 45 46 47 48 49 50

000
ASUS43 KMPX 111110
RWRMN
WEATHER ROUNDUP FOR MINNESOTA
NATIONAL WEATHER SERVICE TWIN CITIES/CHANHASSEN MN
500 AM CST MON DEC 11 2017


NOTE: "FAIR" INDICATES FEW OR NO CLOUDS BELOW 12,000 FEET WITH NO
SIGNIFICANT WEATHER AND/OR OBSTRUCTIONS TO VISIBILITY. N/A MEANS
CURRENT SKY AND/OR WEATHER CONDITIONS ARE NOT AVAILABLE.

MNZ060>063-068>070-111200-
   Twin Cities Metro

CITY           SKY/WX    TMP DP  RH WIND       PRES   REMARKS
TWIN CITIES    CLOUDY    28  26  92 S7        29.77F WCI  21
ST PAUL        CLOUDY    27  25  92 SE8       29.78F WCI  19
CRYSTAL        CLOUDY    28  22  78 S7        29.74F WCI  21
BLAINE         CLOUDY    28  28 100 S8        29.74F WCI  20
LAKEVILLE      CLOUDY    28  27  93 S6        29.75F WCI  22
EDEN PRAIRIE   CLOUDY    30  26  85 S6        29.74F WCI  24
SOUTH ST PAUL  CLOUDY    28  26  96 S3        29.77F
LAKE ELMO      CLOUDY    28  27  93 S7        29.78F WCI  21
$$
MNZ001>005-007-008-013>017-022>024-027-028-111200-
   Northwest Minnesota

CITY           SKY/WX    TMP DP  RH WIND       PRES   REMARKS
BEMIDJI        CLOUDY    27  25  94 SW3       29.65S
HALLOCK        MIX PCPN  30  28  93 N25G37    29.76R WCI  16
ROSEAU         CLOUDY    23  19  86 N7        29.71R WCI  15
WARROAD        FLURRIES  21  19  93 N5        29.71R WCI  15
THIEF RVR FALL FLURRIES  32  30  93 NW22      29.70R WCI  19
CROOKSTON      CLOUDY    36  32  87 N21G26    29.72R
FOSSTON        CLOUDY    30  30 100 W8        29.68R WCI  23
DETROIT LAKES  CLOUDY    34  32  93 W6        29.68F WCI  29
MOORHEAD       MOCLDY    36  30  80 NW15      29.73R
PARK RAPIDS    CLOUDY    28  25  88 S3        29.66F
MAHNOMEN       CLOUDY    32  31  96 W6        29.68R WCI  27
$$
MNZ006-009>011-018-025>026-111200-
   North Central Minnesota

CITY           SKY/WX    TMP DP  RH WIND       PRES   REMARKS
BAUDETTE       LGT SNOW  21  19  92 CALM      29.68R FOG
FLAG ISLAND    CLOUDY    19  18  93 N7        29.72R WCI  10
INTL FALLS     LGT SNOW  19  16  88 CALM      29.67S VSB 3/4
WASKISH        CLOUDY    25  23  93 CALM      29.65S
BIG FORK       CLOUDY    21  19  93 S6        29.66F WCI  14
GRAND RAPIDS   CLOUDY    22  20  92 SE3       29.70F
ORR            MIX PCPN  18  14  86 SE5       29.65F WCI  11
COOK           LGT SNOW  18  18 100 S3        29.69F VSB 1
WALKER         CLOUDY    26  24  93 CALM      29.65F
$$
MNZ012-019>021-037-111200-
   Northeast Minnesota

CITY           SKY/WX    TMP DP  RH WIND       PRES   REMARKS
DULUTH         LGT SNOW  19  18  95 S8        29.71F FOG     WCI   9
ELY            LGT SNOW  18  14  86 S5        29.69F WCI  11
HIBBING        CLOUDY    18  17  96 S5        29.69F FOG     WCI  11
EVELETH        CLOUDY    18  14  86 SE3       29.71F FOG
DULUTH HARBOR  CLOUDY    21  18  86 CALM      29.78F FOG
TWO HARBORS    FLURRIES  21  16  79 CALM      29.73F
G MARAIS ARPRT LGT SNOW  14   9  79 S3        29.71F
$$
MNZ029>031-032-039>041-046>048-054>057-064-111200-
   West Central Minnesota

CITY           SKY/WX    TMP DP  RH WIND       PRES   REMARKS
FERGUS FALLS   PTCLDY    34  30  86 W9        29.73S WCI  26
MORRIS         MOCLDY    37  28  70 NW15      29.70F
ALEXANDRIA     MOCLDY    28  26  92 W7        29.70S WCI  21
ELBOW LAKE     FAIR      33  30  87 NW12      29.71S FOG     WCI  24
WADENA         CLOUDY    30  30 100 W5        29.67F WCI  25
GLENWOOD       PTCLDY    27  27 100 SW7       29.70S WCI  19
BENSON         MOCLDY    30  27  86 CALM      29.72S
ORTONVILLE     CLOUDY    39  27  60 NW16G24   29.74R
MADISON        PTCLDY    41  28  60 W15       29.75S
WILLMAR        CLOUDY    32  30  93 CALM      29.72F
$$
MNZ033>034-036-042>043-049>051-058-059-111200-
   Central Minnesota

CITY           SKY/WX    TMP DP  RH WIND       PRES   REMARKS
ST CLOUD       LGT SNOW  28  27  96 SE7       29.70F FOG     WCI  21
SAUK CENTRE    CLOUDY    30  28  93 S3        29.69F
PAYNESVILLE    CLOUDY    29  28  94 S3        29.70F
AITKIN         CLOUDY    25  21  86 S5        29.68F WCI  19
PINE RIVER     LGT SNOW  25  21  86 CALM      29.72S
BRAINERD       CLOUDY    28  25  88 S7        29.69F WCI  21
STAPLES        MIX PCPN  27  27 100 CALM      29.68S
LONG PRAIRIE   CLOUDY    28  27  93 S5        29.69F WCI  23
LITTLE FALLS   LGT SNOW  28  27  93 SE7       29.69F WCI  21
LITCHFIELD     CLOUDY    28  28 100 CALM      29.72F
BUFFALO        CLOUDY    29  26  87 S3        29.74F
MAPLE LAKE     CLOUDY    30  28  92 CALM      29.74F
HUTCHINSON     MOCLDY    27  26  94 S3        29.73F
$$
MNZ037-044-045-052-053-111200-
   East Central Minnesota

CITY           SKY/WX    TMP DP  RH WIND       PRES   REMARKS
PRINCETON      CLOUDY    28  27  93 S3        29.74F
MORA           CLOUDY    27  27 100 S5        29.75F FOG     WCI  21
CAMBRIDGE      CLOUDY    28  25  86 S6        29.74F WCI  22
RUSH CITY      CLOUDY    25  23  93 SE6       29.75F WCI  18
MOOSE LAKE     LGT SNOW  25  21  86 S3        29.71F
HINCKLEY       CLOUDY    27  25  93 S6        29.75F WCI  20
CLOQUET        LGT SNOW  19  18  93 CALM      29.72F
MCGREGOR       CLOUDY    25  23  93 S3        29.71F
$$
MNZ071>073-080-081-089-090-097-098-111200-
   Southwest Minnesota

CITY           SKY/WX    TMP DP  RH WIND       PRES   REMARKS
MONTEVIDEO     MOCLDY    37  28  70 W7        29.73R
GRANITE FALLS  MOCLDY    35  28  77 W12       29.75R WCI  27
CANBY          CLOUDY    41  28  57 NW22G30   29.78R
MARSHALL       CLOUDY    39  26  59 W17       29.75F
REDWOOD FALLS  CLOUDY    34  26  72 SW7       29.72F WCI  28
OLIVIA         PTCLDY    30  27  86 S5        29.71F WCI  25
PIPESTONE      CLOUDY    30  25  80 W10       29.77R WCI  21
WINDOM           N/A     36  21  55 SW10      29.73F
WORTHINGTON    CLOUDY    33  25  72 SW16      29.74F WCI  23
JACKSON        CLOUDY    34  27  75 MISG      29.75F
TRACY          MOCLDY    39  28  66 W8        29.73F
$$
MNZ065>067-074>077-082>085-091>093-111200-
   South Central Minnesota

CITY           SKY/WX    TMP DP  RH WIND       PRES   REMARKS
MANKATO        PTCLDY    29  27  92 S7        29.76F WCI  22
NEW ULM        CLOUDY    30  27  86 CALM      29.74F
ST JAMES       MOCLDY    32  27  80 S7        29.76F WCI  26
FAIRMONT       CLOUDY    32  26  78 SW7       29.76F WCI  26
GLENCOE        MOCLDY    29  28  95 S3        29.72F
FARIBAULT      CLOUDY    30  27  86 S7        29.76F WCI  23
WASECA         CLOUDY    32  28  86 S3        29.77F
ALBERT LEA     CLOUDY    30  25  80 SW5       29.77F WCI  25
$$
MNZ078>079-086>088-094>096-111200-
   Southeast Minnesota

CITY           SKY/WX    TMP DP  RH WIND       PRES   REMARKS
ROCHESTER      CLOUDY    27  24  89 S10       29.78F WCI  17
RED WING       CLOUDY    28  23  80 SE5       29.79F WCI  23
STANTON        CLOUDY    31  26  81 S8        29.75F WCI  23
DODGE CENTER   CLOUDY    28  25  86 S10       29.76F WCI  19
WINONA         CLOUDY    30  27  86 SE6       29.85F WCI  24
AUSTIN         CLOUDY    28  23  80 S5        29.78F WCI  23
PRESTON        PTCLDY    26  22  85 S10       29.80F WCI  16
$$
ABBREVIATIONS USED IN REMARKS
   TC - TEMPERATURES IN CELSIUS
  WCI - WIND CHILL INDEX
   HX - HEAT INDEX
  VSB - VISIBILITY
$$




USA.gov is the U.S. government's official web portal to all federal, state and local government web resources and services.